Location: Br�znic
(45.9167°N, 22.6500°E)
Time: 15:15:31
(UTC+00:00)

USA 308 - Pass Details

Date: 03 March 2021
Orbit: 568 x 576 km, 54.0° (Epoch: 16 April)

Event Time Altitude Azimuth Distance (km) Brightness Sun altitude
Rises 16:48:46 0° 271° (W) 2,775 9.1 -6.0°
Reaches altitude 10° 16:51:13 10° 281° (WNW) 1,877 7.1 -6.4°
Maximum altitude 16:55:04 32° 346° (NNW) 989 4.3 -7.1°
Drops below altitude 10° 16:58:56 10° 51° (NE) 1,876 5.1 -7.8°
Enters shadow 16:59:52 - 56° (NE) 2,210 5.4 -7.9°
